This is the latest recevied weather packets stored in our database for station/object N3WPH. If no packets are shown the sender has not sent any weather packets the latest 10 day(s).
| Time | Temp. | Humidity | Pressure | Rain* | Wind** | Luminosity | Snow |
|---|---|---|---|---|---|---|---|
| 1777637218 | 6.67° C | 84% | 1013.8 hPa | 0 mm | - | 230 W/m² | - |
| 1777636915 | 6.11° C | 84% | 1013.8 hPa | 0 mm | - | 190 W/m² | - |
| 1777636610 | 6.11° C | 86% | 1013.7 hPa | 0 mm | - | 67 W/m² | - |
| 1777636306 | 5.56° C | 87% | 1013.7 hPa | 0 mm | - | 107 W/m² | - |
| 1777636001 | 5.56° C | 88% | 1013.8 hPa | 0 mm | - | 90 W/m² | - |
| 1777635698 | 5.56° C | 88% | 1014 hPa | 0 mm | - | 83 W/m² | - |
| 1777635395 | 5.56° C | 88% | 1014 hPa | 0 mm | - | 73 W/m² | - |
| 1777635092 | 5.56° C | 88% | 1014 hPa | 0 mm | - | 66 W/m² | - |
| 1777634787 | 5.56° C | 89% | 1013.9 hPa | 0 mm | - | 55 W/m² | - |
| 1777634485 | 5° C | 89% | 1014 hPa | 0 mm | - | 62 W/m² | - |
| 1777634181 | 5° C | 89% | 1013.8 hPa | 0 mm | - | 57 W/m² | - |
| 1777633878 | 5° C | 91% | 1013.5 hPa | 0 mm | - | 48 W/m² | - |
| 1777633576 | 5° C | 92% | 1013.7 hPa | 0 mm | - | 46 W/m² | - |
| 1777633274 | 4.44° C | 94% | 1013.5 hPa | 0 mm | - | 45 W/m² | - |
| 1777632971 | 3.89° C | 94% | 1013.6 hPa | 0 mm | - | 39 W/m² | - |
| 1777632667 | 3.33° C | 94% | 1013.5 hPa | 0 mm | - | 31 W/m² | - |
| 1777632363 | 3.33° C | 94% | 1013.4 hPa | 0 mm | - | 31 W/m² | - |
| 1777632061 | 3.33° C | 94% | 1013.2 hPa | 0 mm | - | 23 W/m² | - |
| 1777631758 | 3.33° C | 94% | 1013 hPa | 0 mm | - | 19 W/m² | - |
| 1777631456 | 3.33° C | 93% | 1012.9 hPa | 0 mm | - | 16 W/m² | - |
| 1777631152 | 3.33° C | 93% | 1012.9 hPa | 0 mm | - | 13 W/m² | - |
| 1777630850 | 3.89° C | 92% | 1013 hPa | 0 mm | - | 11 W/m² | - |
| 1777630546 | 3.89° C | 92% | 1013 hPa | 0 mm | - | 8 W/m² | - |
| 1777630242 | 3.89° C | 92% | 1013.1 hPa | 0 mm | - | 6 W/m² | - |
| 1777629941 | 3.89° C | 91% | 1013.2 hPa | 0 mm | - | 4 W/m² | - |
* Rain latest hour (hover to see other rain measurements)
** Current wind speed in m/s (hover to see current wind gust speed)